Location: Ar Ranvel
(48.3000°N, 4.8833°W)
Time: 19:34:42
(UTC+00:00)

Daily predictions for brighter satellites

Satellite Brightness Start Highest point End
(mag) Time Altitude Azimuth Time Altitude Azimuth Time Altitude Azimuth
SPOT 5 4.0 20:54:13 10° SE 20:58:42 31° ENE 21:03:02 10° N
Cosmos 1707 2.9 20:56:10 10° S 20:59:57 54° E 21:03:45 10° NNE
Cosmos 1452 Rocket 4.0 20:56:44 10° S 21:01:40 42° ESE 21:06:38 10° NE
Cosmos 1238 4.4 21:00:40 10° S 21:04:08 81° W 21:07:12 10° N
Cosmos 2056 Rocket 4.0 21:01:42 10° SSW 21:06:53 67° WNW 21:12:12 10° NNE
In-Cosmos 22 4.4 21:02:42 10° SSE 21:07:45 48° E 21:12:50 10° NNE
Resurs 01 Rocket 2.1 21:05:47 10° S 21:10:08 61° W 21:14:31 10° NNW
Cosmos 1850 Rocket 4.3 21:05:11 10° NNW 21:10:27 58° ENE 21:15:39 10° SE
Terra 3.1 21:06:50 10° ESE 21:10:50 28° ENE 21:14:52 10° N
Lacrosse 5 2.2 21:05:54 10° WNW 21:10:53 58° SW 21:15:51 10° SE
Cosmos 1953 3.2 21:07:27 10° N 21:11:14 36° ENE 21:15:00 10° SE
SPOT 1/Viking Rocket 3.6 21:06:08 10° SSE 21:11:16 78° ENE 21:16:25 10° NNW
Cosmos 2333 Rocket 3.9 21:09:48 10° SE 21:13:04 16° E 21:16:20 10° ENE
Cosmos 1025 Rocket 4.4 21:10:27 10° SE 21:13:53 23° E 21:17:20 10° NE
CARTOSAT-1 3.9 21:11:22 10° SSE 21:15:34 52° ENE 21:19:47 10° N
MetOp-B 4.3 21:11:17 10° SSE 21:16:39 81° WSW 21:22:02 10° NNW
NOSS 3-2 (A) 4.0 21:11:02 10° SW 21:16:41 65° NW 21:23:19 10° NE
USA 245 4.1 21:12:18 10° SSE 21:17:00 78° ENE 21:22:44 10° N
NOSS 3-2 (C) 3.4 21:11:30 10° SW 21:17:09 85° SE 21:23:45 10° NE
IGS 5A 4.3 21:14:31 10° S 21:18:34 50° W 21:22:38 10° NNW
Geosat 4.1 21:15:20 10° SE 21:20:20 72° ENE 21:25:22 10° NNW
FALCON 9 DEB 4.2 21:17:41 10° SSW 21:20:31 24° SE 21:23:22 10° E
Spot 2 Rocket 3.6 21:18:17 10° SSE 21:23:18 71° ENE 21:28:23 10° N
Cosmos 1975 Rocket 3.3 21:19:24 10° SSE 21:23:35 50° E 21:27:51 10° NNE
ATLAS 3B R/B 3.7 21:19:34 10° SSE 21:24:23 22° ESE 21:29:17 10° ENE
Cosmos 1844 4.3 21:19:35 10° NNW 21:24:59 48° NE 21:30:18 10° SE
Cosmos 1420 Rocket 4.3 21:20:17 10° SSW 21:25:27 71° WNW 21:30:41 10° NNE
Cosmos 1461 3.3 21:22:55 10° NNW 21:27:09 57° NE 21:30:58 11° SE
Cosmos 2219 Rocket 3.7 21:24:39 10° SE 21:28:13 17° E 21:31:50 10° ENE
ERS-1 Rocket 3.3 21:24:38 10° SSE 21:29:33 56° ENE 21:34:30 10° N
Cosmos 1626 3.3 21:27:13 11° SSE 21:30:07 27° E 21:33:16 10° NNE
Aureole 1 Rocket 4.2 21:28:03 10° NNW 21:33:36 64° ENE 21:40:17 12° SE
SL-8 R/B 3.7 21:31:56 10° W 21:36:45 79° SSW 21:41:33 10° ESE
BREEZE-M DEB (TANK) 2.2 21:33:24 10° WNW 21:37:32 66° SSW 21:39:08 16° SE
BREEZE-M DEB (TANK) 2.7 21:37:13 10° SSW 21:39:21 24° SE 21:42:45 10° E
JB-3 4.3 21:36:14 10° NNE 21:40:11 76° ESE 21:44:12 10° S
KORONAS-FOTON 3.8 21:36:57 10° S 21:40:42 66° E 21:44:28 10° NNE
ATLAS CENTAUR R/B 2.6 21:38:09 10° NNW 21:42:08 37° NE 21:46:20 10° ESE
Cosmos 1741 Rocket 4.1 21:37:20 10° NNW 21:42:37 83° WSW 21:47:27 13° SSE
USA 215 4.0 21:40:34 10° ENE 21:46:03 28° SE 21:51:30 10° S
Genesis I 4.0 21:43:17 10° SW 21:47:05 55° NW 21:51:00 10° NNE
SL-16 R/B 2.5 21:42:13 10° SW 21:47:52 71° WNW 21:53:33 10° NNE
ARIANE 5 R/B 2.7 21:43:36 11° S 21:47:52 78° WSW 21:52:24 10° NNW
Cosmos 2100 Rocket 4.1 21:42:13 10° N 21:48:39 86° E 21:54:46 11° S
CZ-2C R/B 4.3 21:44:37 10° N 21:49:20 62° WNW 21:54:03 10° SSW
Cosmos 2360 Rocket 2.3 21:43:51 10° S 21:49:23 60° ESE 21:54:57 10° NE
Cosmos 2322 Rocket 2.3 21:44:57 10° SSW 21:50:40 84° WNW 21:56:26 10° NNE
USA 238 DEB 4.5 21:46:11 10° WSW 21:52:40 57° NW 21:59:32 10° NE
USA 238 4.4 21:46:18 10° WSW 21:52:46 57° NW 21:59:39 10° NE
Centaur D AC-29 4.1 21:18:17 10° WSW 21:53:14 27° SSW 21:59:44 13° SSE
Meteor 1-16 Rocket 4.2 21:50:59 10° NNW 21:56:31 77° W 22:01:29 12° S
Cosmos 1674 2.8 21:57:38 10° SSW 22:01:21 70° W 22:05:03 10° N
CENTAUR R/B 3.6 21:58:21 10° WSW 22:04:21 52° NW 22:11:33 10° NE
COSMOS 2428 3.8 22:01:02 16° SSE 22:04:26 27° ESE 22:09:12 10° NE
Cosmos 1544 Rocket 3.6 22:00:35 10° N 22:05:05 86° E 22:08:31 17° S
H-2A R/B 3.8 22:02:41 10° NNE 22:06:39 46° E 22:09:25 18° SSE
Cosmos 2322 4.2 22:02:41 13° S 22:07:15 40° ESE 22:12:30 10° NE
CZ-4B DEB 4.2 22:06:05 22° SSE 22:07:59 71° ENE 22:11:09 10° N
Cosmos 2173 Rocket 4.2 22:01:50 10° NNW 22:08:13 75° W 22:14:09 12° S
Cosmos 1300 3.3 22:04:39 10° N 22:08:20 44° ENE 22:10:36 20° SE
Cosmos 2237 4.3 22:03:59 10° SSW 22:09:42 83° WNW 22:15:26 10° NNE
Cosmos 1455 Rocket 3.7 22:05:41 10° NNW 22:10:01 53° W 22:14:02 12° S
Cosmos 2016 Rocket 3.9 22:04:58 10° N 22:11:08 80° E 22:16:03 17° SSE
Cosmos 2278 Rocket 3.6 22:08:21 10° NNW 22:13:16 29° NE 22:18:10 10° ESE
Cosmos 1346 Rocket 4.3 22:19:17 18° ESE 22:20:46 22° E 22:23:53 10° NE
USA 267 3.8 22:14:46 10° E 22:21:09 58° NNE 22:27:32 10° NW
Cosmos 1110 Rocket 4.0 22:16:31 10° SSW 22:21:42 84° WNW 22:26:57 10° NNE
Cosmos 1725 Rocket 4.0 22:16:20 10° N 22:22:33 84° E 22:27:17 18° S
Cosmos 1844 Rocket 3.1 22:19:38 10° NW 22:25:12 56° WSW 22:29:19 18° S
Cosmos 1908 4.5 22:22:51 10° NNW 22:26:26 36° W 22:29:31 13° SSW
Meteor 2-5 Rocket 3.8 22:24:44 18° S 22:28:47 61° E 22:34:18 10° NNE
Cosmos 1340 2.6 22:26:36 20° S 22:29:07 83° E 22:32:54 10° NNE
Cosmos 968 Rocket 3.8 22:25:06 10° NNW 22:30:09 56° ENE 22:33:31 21° SE
Lacrosse 5 rocket 0.9 22:28:03 10° SW 22:31:40 59° SE 22:35:12 10° ENE
Cosmos 405 2.9 22:30:40 10° NNW 22:34:07 75° W 22:35:50 27° S
Cosmos 1802 Rocket 4.4 22:29:20 10° NNW 22:35:28 59° W 22:40:49 14° SSW
Cosmos 1900 4.4 22:30:41 10° NW 22:35:32 64° WSW 22:38:26 24° SSE
SPOT 5 4.0 22:32:22 13° SSW 22:36:40 40° W 22:41:21 10° NNW
Cosmos 1536 Rocket 3.5 22:35:24 19° S 22:38:34 88° E 22:43:03 10° N
GEOS 3 Rocket 3.8 22:36:02 18° SE 22:40:03 77° NE 22:45:24 10° NW
Cosmos 2333 4.2 22:40:22 10° SSW 22:46:07 90° SE 22:51:54 10° NNE
Cosmos 1953 4.4 22:44:17 10° NW 22:47:23 21° W 22:50:28 10° SW
DNEPR-1 R/B 3.5 22:44:10 10° NW 22:48:22 69° SW 22:50:34 28° SSE
Terra 2.7 22:45:01 16° SSW 22:48:25 41° W 22:52:56 10° NNW
Cosmos 1025 Rocket 4.3 22:47:09 10° SW 22:51:16 39° WNW 22:55:23 10° N
Lacrosse 5 4.1 22:51:14 10° W 22:52:55 12° WSW 22:54:37 10° SW
FALCON 9 DEB 4.3 22:56:14 24° E 22:56:14 24° E 22:57:55 10° ENE
SL-14 R/B 4.1 22:53:00 15° SSW 22:56:07 48° WNW 23:00:02 10° N
Cosmos 2333 Rocket 2.2 22:50:56 11° SSW 22:56:31 89° ESE 23:02:17 10° NNE
FALCON 9 DEB 3.3 22:53:45 10° WSW 22:57:09 70° NNW 23:00:35 10° ENE
Cosmos 2228 3.0 22:54:51 10° N 22:59:17 75° E 23:01:23 30° SSE
BREEZE-M DEB (TANK) 3.7 22:53:33 10° SW 23:03:30 39° SSE 23:06:53 10° E
Cosmos 1626 4.2 23:02:18 10° SW 23:05:18 23° WNW 23:08:20 10° NNW
Cosmos 2219 Rocket 2.2 23:06:17 13° SSW 23:11:26 82° WNW 23:17:10 10° NNE
Uosat 12 SS-18 rocket 4.1 23:10:43 25° SSW 23:13:12 66° SE 23:18:12 10° NE
ATLAS 3B R/B 2.6 23:07:39 10° SW 23:14:14 86° NW 23:21:04 10° NE
Cosmos 1503 Rocket 4.3 23:10:53 10° NNW 23:16:15 63° ENE 23:19:20 25° SE
Meteor 2-10 Rocket 3.5 23:11:12 10° NNW 23:16:18 72° W 23:18:55 28° S
Meteor 1-24 Rocket 3.8 23:13:06 20° SSW 23:16:53 69° WNW 23:22:22 10° N
FALCON 9 DEB 2.7 23:16:35 50° SSW 23:17:10 66° SSE 23:20:15 10° ENE
SL-8 R/B 4.5 23:14:40 10° W 23:18:56 32° SSW 23:19:54 30° S
FALCON 9 DEB 2.9 23:19:50 53° SE 23:19:50 53° SE 23:22:42 10° ENE
ATLAS CENTAUR R/B 2.4 23:17:01 10° NW 23:21:01 36° WSW 23:22:33 28° SSW
SL-16 R/B 4.0 23:20:20 14° ESE 23:21:57 15° E 23:25:04 10° ENE
Cosmos 2058 Rocket 3.5 23:19:18 10° N 23:23:42 54° ENE 23:25:34 31° SE
Iridium 2 3.6 23:22:59 41° S 23:24:11 78° E 23:27:57 10° N
FALCON 9 DEB 2.7 23:25:34 49° SW 23:26:16 73° SSE 23:29:22 10° ENE
Cosmos 2237 Rocket 2.7 23:24:08 29° SSE 23:26:29 44° ESE 23:31:47 10° NE
ATLAS CENTAUR R/B 3.7 23:25:37 27° SSE 23:27:53 35° ESE 23:38:05 10° NE
USA 215 3.2 23:23:05 10° NE 23:29:40 84° SE 23:36:13 10° SW
Cosmos 1867 3.6 23:24:40 10° NW 23:30:09 72° SW 23:32:53 30° SSE
Spot 4 3.9 23:31:30 32° S 23:33:42 68° WSW 23:38:29 10° NNW
Cosmos 2360 Rocket 4.1 23:28:55 10° WSW 23:33:47 29° NW 23:38:39 10° NNE
Cosmos 1726 Rocket 3.6 23:29:20 10° NNW 23:33:49 76° W 23:35:38 35° S
Cosmos 1455 2.1 23:32:30 10° N 23:36:21 88° W 23:37:30 44° S
Cosmos 389 Rocket 3.1 23:33:11 10° NNW 23:36:26 42° W 23:37:17 35° SW
Cosmos 1891 Rocket 4.4 23:31:01 10° N 23:37:11 85° E 23:40:38 29° S
Meteor 1-21 Rocket 4.4 23:39:34 30° SSE 23:42:15 59° E 23:47:52 10° NNE
Cosmos 1513 Rocket 4.4 23:36:59 10° N 23:43:05 90° NW 23:46:23 29° S
Meteor 1-4 Rocket 3.8 23:40:40 10° N 23:43:48 30° ENE 23:44:51 25° ESE
Cosmos 1606 Rocket 4.3 23:43:30 10° NNW 23:47:45 43° W 23:49:36 28° SW
COSMOS 2428 3.3 23:42:59 11° SW 23:48:22 56° WNW 23:54:03 10° NNE
NOSS 0 Rocket 3.9 23:45:22 24° SSW 23:49:19 82° ESE 23:55:35 10° NNE
ALOS 2 2.6 23:49:12 38° S 23:50:51 77° WSW 23:55:16 10° NNW
Cosmos 1892 Rocket 3.6 23:49:28 34° SSW 23:51:20 75° W 23:55:48 10° N
SJ 16-02 3.0 23:50:14 10° N 23:54:01 27° ENE 23:57:01 14° ESE
COBE Rocket 4.1 23:51:48 32° S 23:54:04 63° W 23:59:02 10° NNW
